CZ-6A DEB, 54288

Orbit data source: Space-Track

CZ-6A DEB, 54288 is space debris in SSO originally from a launch on Fri, 11 Nov 2022 UTC launched from the Taiyaun Space Center, China (TSC). Debris objects in space refer to the collection of defunct objects orbiting the Earth. Examples of debris include non-operational satellites, rocket bodies, and fragments generated from explosions, collisions, or faulty payload assembly.

Loading next visibility...
Identifier
54288, 2022-151AF
Orbit
SSO
Country
Flag of CNCN / PRC
Related business
Manufacturer
SAST
Mission
Spacecraft
Bus & Motor
Unknown
Mass
Unknown
Launch date (UTC)
2022-11-11 (4 years ago)
Launch vehicle
Unknown
Launch site
Taiyaun Space Center, China (TSC)
Object type
Payload
Rocket body
Debris
Shape & HBR
Unknown shape, 0.1 m
Radar Cross Section
Small (<0.1 m²)

Expand to show TLE details & history
Last TLE update: 1 day ago

TLE from 1 day ago
0 CZ-6A DEB
1 54288U 22151AF  26143.75529968  .00001570  00000-0  27900-3 0  9999
2 54288  98.6640 230.2163 0130169 302.1445  56.7179 14.63444338187010
Epoch: 2026-05-23T18:07Z
TLE epoch observation values (Epoch: 2026-05-23T18:07:37.892Z)
Latitude
-0.00009°
Longitude
76.94119°
Altitude
635.453 km
Speed
7.567 km/s
True Right ascension
15h 20m 51s
True Declination
0° 00' 00"
Sunlit
Object was in full shadow at epoch
Visualization orbit readout
Latitude
Unknown
Longitude
Unknown
Altitude
Unknown
Speed
Unknown
Apparent Right ascension
Unknown
Apparent Declination
Unknown
Sunlit
N/A
Visualization observer readout
Local Sidereal Time
10:16:03
Azimuth
Unknown
Elevation
Unknown
Doppler factor
Unknown
Orbital elements
Apogee altitude
771.036 km
Perigee altitude
587.308 km
Semi-major axis
7,057.309 km
Eccentricity
0.01302
Inclination
98.664°
RAAN
230.2163°
Arg. of periapsis
302.1445°
True anomaly
57.976°
Mean anomaly
56.7179°
Eccentric anomaly
57.34583°
Mean motion
3.66087 °/min
Orbital period
98.34 mins
BSTAR
0.000279
Loading maneuver chart data...
Computing Atmospheric mass density...
Loading historical data...
Loading historical data...
Loading historical data...
Loading historical data...
Loading historical data...
Loading historical data...
Loading historical data...

Documentation

Showing up to 5 results
|